Time,TemperatureF,DewpointF,PressureIn,WindDirection,WindDirectionDegrees,WindSpeedMPH,WindSpeedGustMPH,Humidity,HourlyPrecipIn,Conditions,Clouds,dailyrainin,SoftwareType,DateUTC
2013-10-18 00:00:00,39.3,37.2,29.76,SW,219,0.0,0.0,92,0.00,,,0.08,Wunderground v.1.15,2013-10-18 05:00:00,
2013-10-18 00:30:00,38.5,36.7,29.76,SW,219,0.0,0.0,93,0.00,,,0.00,Wunderground v.1.15,2013-10-18 05:30:00,
2013-10-18 01:00:00,38.2,36.4,29.76,SW,219,0.0,0.0,93,0.00,,,0.00,Wunderground v.1.15,2013-10-18 06:00:00,
2013-10-18 01:30:00,37.3,35.7,29.75,SW,219,0.0,0.0,94,0.00,,,0.00,Wunderground v.1.15,2013-10-18 06:30:00,
2013-10-18 02:00:00,37.3,35.7,29.75,SW,219,0.0,0.0,94,0.00,,,0.00,Wunderground v.1.15,2013-10-18 07:00:00,
2013-10-18 02:30:00,36.9,35.6,29.75,SW,219,0.0,0.0,95,0.00,,,0.00,Wunderground v.1.15,2013-10-18 07:30:00,
2013-10-18 03:00:00,37.2,35.9,29.74,SW,219,0.0,0.0,95,0.00,,,0.00,Wunderground v.1.15,2013-10-18 08:00:00,
2013-10-18 03:30:00,37.9,36.9,29.74,SW,219,0.0,0.0,96,0.00,,,0.00,Wunderground v.1.15,2013-10-18 08:30:00,
2013-10-18 04:00:00,39.1,38.1,29.73,SW,219,0.0,0.0,96,0.00,,,0.00,Wunderground v.1.15,2013-10-18 09:00:00,
2013-10-18 04:30:00,39.5,38.5,29.73,SW,219,0.0,0.0,96,0.00,,,0.00,Wunderground v.1.15,2013-10-18 09:30:00,
2013-10-18 05:00:00,39.6,38.6,29.73,SW,219,0.0,0.0,96,0.00,,,0.00,Wunderground v.1.15,2013-10-18 10:00:00,
2013-10-18 05:30:00,39.9,38.3,29.74,SW,215,0.0,0.0,94,0.00,,,0.00,Wunderground v.1.15,2013-10-18 10:30:00,
2013-10-18 06:00:00,39.5,37.4,29.74,SSW,210,0.0,0.0,92,0.00,,,0.00,Wunderground v.1.15,2013-10-18 11:00:00,
2013-10-18 06:30:00,39.3,36.6,29.76,SSW,198,0.0,0.0,90,0.00,,,0.00,Wunderground v.1.15,2013-10-18 11:30:00,
2013-10-18 07:00:00,39.3,36.6,29.76,SSW,198,0.0,0.0,90,0.00,,,0.00,Wunderground v.1.15,2013-10-18 12:00:00,
2013-10-18 07:30:00,38.8,36.4,29.77,SSW,198,0.0,0.0,91,0.00,,,0.00,Wunderground v.1.15,2013-10-18 12:30:00,
2013-10-18 08:00:00,39.5,37.4,29.78,SSW,198,0.0,0.0,92,0.00,,,0.00,Wunderground v.1.15,2013-10-18 13:00:00,
2013-10-18 08:30:00,41.8,39.9,29.79,SSW,198,0.0,0.0,93,0.00,,,0.00,Wunderground v.1.15,2013-10-18 13:30:00,
2013-10-18 09:00:00,44.5,42.6,29.79,SSW,205,0.0,1.0,93,0.00,,,0.00,Wunderground v.1.15,2013-10-18 14:00:00,
2013-10-18 09:30:00,46.0,42.9,29.80,WSW,257,0.0,0.0,89,0.00,,,0.00,Wunderground v.1.15,2013-10-18 14:30:00,
2013-10-18 10:00:00,46.2,42.5,29.80,SSW,205,0.0,0.0,87,0.00,,,0.00,Wunderground v.1.15,2013-10-18 15:00:00,
2013-10-18 10:30:00,46.5,42.8,29.81,SSW,201,0.0,0.0,87,0.00,,,0.00,Wunderground v.1.15,2013-10-18 15:30:00,
2013-10-18 11:00:00,47.4,42.8,29.81,West,273,0.0,4.0,84,0.00,,,0.00,Wunderground v.1.15,2013-10-18 16:00:00,
2013-10-18 11:30:00,48.8,40.9,29.80,West,267,1.0,5.0,74,0.00,,,0.00,Wunderground v.1.15,2013-10-18 16:30:00,
2013-10-18 12:00:00,48.2,39.9,29.82,West,272,1.0,1.0,73,0.00,,,0.00,Wunderground v.1.15,2013-10-18 17:00:00,
2013-10-18 12:30:00,48.5,40.6,29.81,WSW,248,1.0,1.0,74,0.00,,,0.00,Wunderground v.1.15,2013-10-18 17:30:00,
2013-10-18 13:00:00,48.8,40.5,29.82,SW,217,1.0,1.0,73,0.00,,,0.00,Wunderground v.1.15,2013-10-18 18:00:00,
2013-10-18 13:30:00,47.6,39.7,29.82,West,278,2.0,2.0,74,0.00,,,0.00,Wunderground v.1.15,2013-10-18 18:30:00,
2013-10-18 14:00:00,47.3,40.1,29.82,West,261,1.0,6.0,76,0.00,,,0.00,Wunderground v.1.15,2013-10-18 19:00:00,
2013-10-18 14:30:00,47.0,39.1,29.82,West,272,2.0,2.0,74,0.00,,,0.00,Wunderground v.1.15,2013-10-18 19:30:00,
2013-10-18 15:00:00,46.2,39.1,29.82,West,263,3.0,3.0,76,0.00,,,0.00,Wunderground v.1.15,2013-10-18 20:00:00,
2013-10-18 15:30:00,46.2,37.7,29.83,West,276,3.0,4.0,72,0.00,,,0.00,Wunderground v.1.15,2013-10-18 20:30:00,
2013-10-18 16:00:00,46.2,37.3,29.83,WNW,292,5.0,5.0,71,0.00,,,0.00,Wunderground v.1.15,2013-10-18 21:00:00,
2013-10-18 16:30:00,45.8,37.3,29.83,WNW,296,2.0,2.0,72,0.00,,,0.00,Wunderground v.1.15,2013-10-18 21:30:00,
2013-10-18 17:00:00,45.8,37.3,29.83,West,273,0.0,0.0,72,0.00,,,0.00,Wunderground v.1.15,2013-10-18 22:00:00,
2013-10-18 17:30:00,45.8,36.9,29.85,West,277,1.0,1.0,71,0.00,,,0.00,Wunderground v.1.15,2013-10-18 22:30:00,
2013-10-18 18:00:00,45.7,37.5,29.85,West,277,0.0,0.0,73,0.00,,,0.00,Wunderground v.1.15,2013-10-18 23:00:00,
2013-10-18 18:30:00,45.2,37.1,29.86,West,281,0.0,0.0,73,0.00,,,0.00,Wunderground v.1.15,2013-10-18 23:30:00,
2013-10-18 19:00:00,44.6,37.2,29.87,WNW,285,0.0,0.0,75,0.00,,,0.00,Wunderground v.1.15,2013-10-19 00:00:00,
2013-10-18 19:30:00,44.1,37.3,29.88,WNW,285,0.0,0.0,77,0.00,,,0.00,Wunderground v.1.15,2013-10-19 00:30:00,
2013-10-18 20:00:00,43.8,37.4,29.87,WNW,285,0.0,0.0,78,0.00,,,0.00,Wunderground v.1.15,2013-10-19 01:00:00,
2013-10-18 20:30:00,43.5,37.4,29.87,WNW,285,0.0,0.0,79,0.00,,,0.00,Wunderground v.1.15,2013-10-19 01:30:00,
2013-10-18 21:00:00,43.1,37.7,29.87,WNW,285,0.0,0.0,81,0.00,,,0.00,Wunderground v.1.15,2013-10-19 02:00:00,
2013-10-18 21:30:00,42.2,37.1,29.86,WNW,285,0.0,0.0,82,0.00,,,0.00,Wunderground v.1.15,2013-10-19 02:30:00,
2013-10-18 22:00:00,41.2,36.4,29.86,WNW,285,0.0,0.0,83,0.00,,,0.00,Wunderground v.1.15,2013-10-19 03:00:00,
2013-10-18 22:30:00,40.5,36.3,29.85,WNW,285,0.0,0.0,85,0.00,,,0.00,Wunderground v.1.15,2013-10-19 03:30:00,
2013-10-18 23:00:00,39.9,35.8,29.85,WNW,285,0.0,0.0,85,0.00,,,0.00,Wunderground v.1.15,2013-10-19 04:00:00,
2013-10-18 23:30:00,39.6,36.0,29.85,WNW,285,0.0,0.0,87,0.00,,,0.00,Wunderground v.1.15,2013-10-19 04:30:00,